Orbital Elements at Epoch 2450280.5 (1996-Jul-16.0) TDB
Reference: JPL 27 (heliocentric ecliptic J2000)
Element | Value | Uncertainty (1-sigma) | Units |
e | 0.9627088867609727707019 | 1.7755e-08 | |
a | 17.680816651897078628508 | 2.2796e-07 | au |
q | 0.6593373359243723808020 | 3.1242e-07 | au |
i | 85.382753114444753350653 | 6.0402e-05 | deg |
node | 79.62450068849807 | 5.922e-05 | deg |
peri | 12.99609193700053 | 6.0163e-05 | deg |
M | 3.765031967057799 | 3.9081e-07 | deg |
tp | 2449996.500173375464 (1995-Oct-06.00017338) | 2.9358e-05 | TDB |
period | 27155.13134533326 74.35 | 0.00052517 1.438e-06 | d yr |
n | .01325716290677665 | 2.5639e-10 | deg/d |
Q | 34.70229596786979 | 4.4742e-07 | au |
|
| | Orbit Determination Parameters
Additional Information
|